Weather History for Bar Harbor, ME

Change the Weather History Date:

Monday, November 11, 2013

  Actual Average Record
Temperature  
Mean Temperature 40 °F -  
Max Temperature 44 °F 48 °F 63 °F (1966)
Min Temperature 35 °F 34 °F 20 °F (1967)
Degree Days  
Heating Degree Days 26    
Moisture  
Dew Point 33 °F    
Average Humidity 80    
Maximum Humidity 100    
Minimum Humidity 53    
Precipitation  
Precipitation 0.00 in - - ()
Sea Level Pressure  
Sea Level Pressure 29.88 in    
Wind  
Wind Speed 4 mph (WNW)    
Max Wind Speed 12 mph    
Max Gust Speed 21 mph    
Visibility 10 miles    
Events      
Averages and records for this station are not official NWS values.
T = Trace of Precipitation, MM = Missing Value Source: NWS Daily Summary

Daily Weather History Graph

Daily Weather History Graph

Search for Another Location

Airport:

Trip Planner

Search our weather history database for the weather conditions in past years. The results will help you decide how hot, cold, wet, or windy it might be!

Date:

Astronomy

Nov. 11, 2013 Rise Set
Actual Time 6:24 AM EST 4:09 PM EST
Civil Twilight 5:53 AM EST 4:41 PM EST
Nautical Twilight 5:18 AM EST 5:16 PM EST
Astronomical Twilight 4:44 AM EST 5:50 PM EST
Moon 1:01 PM EST (11/11) No Moon Set
Length of Visible Light 10h 47m
Length of Day
9h 45m
Waxing Gibbous, 66% of the Moon is Illuminated
Nov 11
Waxing Gibbous
Nov 17
Full
Nov 25
Last Quarter
Dec 2
New
Dec 9
First Quarter

Hourly Weather History & Observations

Time (EST) Temp. Windchill Dew Point Humidity Pressure Visibility Wind Dir Wind Speed Gust Speed Precip Events Conditions
12:15 AM 37.4 °F - 37.4 °F 100% 29.69 in 8.0 mi Calm Calm - N/A   Mostly Cloudy
12:35 AM 37.4 °F 34.9 °F 37.4 °F 100% 29.69 in 8.0 mi West 3.5 mph - N/A   Overcast
12:55 AM 37.4 °F - 37.4 °F 100% 29.70 in 8.0 mi Calm Calm - N/A   Mostly Cloudy
1:15 AM 37.4 °F - 37.4 °F 100% 29.71 in 8.0 mi Calm Calm - N/A   Scattered Clouds
1:35 AM 35.6 °F - 35.6 °F 100% 29.71 in 6.0 mi Calm Calm - N/A   Mostly Cloudy
1:55 AM 37.4 °F 34.9 °F 37.4 °F 100% 29.72 in 9.0 mi West 3.5 mph - N/A   Mostly Cloudy
2:15 AM 37.4 °F 33.8 °F 37.4 °F 100% 29.73 in 8.0 mi West 4.6 mph - N/A   Mostly Cloudy
2:35 AM 37.4 °F 33.8 °F 37.4 °F 100% 29.73 in 8.0 mi West 4.6 mph - N/A   Overcast
2:55 AM 37.4 °F 32.8 °F 37.4 °F 100% 29.74 in 10.0 mi West 5.8 mph - N/A   Mostly Cloudy
3:15 AM 35.6 °F 31.7 °F 35.6 °F 100% 29.75 in 10.0 mi West 4.6 mph - N/A   Mostly Cloudy
3:35 AM 35.6 °F 30.7 °F 35.6 °F 100% 29.75 in 10.0 mi West 5.8 mph - N/A   Mostly Cloudy
3:55 AM 35.6 °F 30.7 °F 33.8 °F 93% 29.77 in 10.0 mi West 5.8 mph - N/A   Partly Cloudy
4:15 AM 35.6 °F 31.7 °F 33.8 °F 93% 29.78 in 10.0 mi West 4.6 mph - N/A   Scattered Clouds
4:35 AM 35.6 °F 32.8 °F 35.6 °F 100% 29.79 in 10.0 mi West 3.5 mph - N/A   Clear
4:55 AM 35.6 °F 31.7 °F 35.6 °F 100% 29.80 in 10.0 mi West 4.6 mph - N/A   Clear
5:15 AM 35.6 °F 31.7 °F 35.6 °F 100% 29.81 in 10.0 mi WNW 4.6 mph - N/A   Clear
5:35 AM 37.4 °F 31.4 °F 35.6 °F 93% 29.81 in 10.0 mi NW 8.1 mph - N/A   Clear
5:55 AM 37.4 °F 32.1 °F 35.6 °F 93% 29.83 in 10.0 mi WNW 6.9 mph - N/A   Scattered Clouds
6:15 AM 37.4 °F 31.4 °F 33.8 °F 87% 29.84 in 10.0 mi NW 8.1 mph - N/A   Partly Cloudy
6:35 AM 37.4 °F 31.4 °F 33.8 °F 87% 29.86 in 10.0 mi NW 8.1 mph 17.3 mph N/A   Clear
6:55 AM 35.6 °F 30.7 °F 33.8 °F 93% 29.87 in 10.0 mi NW 5.8 mph - N/A   Clear
7:15 AM 35.6 °F 29.2 °F 33.8 °F 93% 29.88 in 10.0 mi NW 8.1 mph - N/A   Scattered Clouds
7:35 AM 35.6 °F 29.2 °F 33.8 °F 93% 29.89 in 10.0 mi WNW 8.1 mph - N/A   Partly Cloudy
7:55 AM 37.4 °F 31.4 °F 33.8 °F 87% 29.90 in 10.0 mi WNW 8.1 mph - N/A   Clear
8:15 AM 39.2 °F 35.0 °F 33.8 °F 81% 29.90 in 10.0 mi NW 5.8 mph - N/A   Clear
8:35 AM 39.2 °F 34.2 °F 33.8 °F 81% 29.91 in 10.0 mi NW 6.9 mph - N/A   Partly Cloudy
8:55 AM 39.2 °F 35.0 °F 33.8 °F 81% 29.93 in 10.0 mi WNW 5.8 mph - N/A   Mostly Cloudy
9:15 AM 39.2 °F 33.0 °F 33.8 °F 81% 29.93 in 10.0 mi WNW 9.2 mph - N/A   Overcast
9:35 AM 39.2 °F 34.2 °F 33.8 °F 81% 29.94 in 10.0 mi WNW 6.9 mph 18.4 mph N/A   Overcast
9:55 AM 41.0 °F 35.8 °F 33.8 °F 76% 29.93 in 10.0 mi NW 8.1 mph 18.4 mph N/A   Overcast
10:15 AM 41.0 °F 38.0 °F 33.8 °F 76% 29.94 in 10.0 mi NW 4.6 mph - N/A   Overcast
10:35 AM 42.8 °F 36.6 °F 33.8 °F 70% 29.93 in 10.0 mi NNW 11.5 mph 17.3 mph N/A   Mostly Cloudy
10:55 AM 42.8 °F 37.0 °F 30.2 °F 61% 29.94 in 10.0 mi WNW 10.4 mph 18.4 mph N/A   Overcast
11:15 AM 42.8 °F 37.5 °F 32.0 °F 66% 29.93 in 10.0 mi WNW 9.2 mph 20.7 mph N/A   Overcast
11:35 AM 44.6 °F 40.7 °F 32.0 °F 61% 29.93 in 10.0 mi NW 6.9 mph 16.1 mph N/A   Overcast
11:55 AM 44.6 °F 40.2 °F 30.2 °F 57% 29.93 in 10.0 mi NNW 8.1 mph 16.1 mph N/A   Overcast
12:15 PM 42.8 °F 38.0 °F 30.2 °F 61% 29.93 in 10.0 mi NW 8.1 mph - N/A   Overcast
12:35 PM 44.6 °F 39.2 °F 30.2 °F 57% 29.92 in 10.0 mi NNW 10.4 mph 16.1 mph N/A   Overcast
12:55 PM 44.6 °F 39.7 °F 28.4 °F 53% 29.93 in 10.0 mi WNW 9.2 mph 20.7 mph N/A   Overcast
1:15 PM 42.8 °F 38.0 °F 30.2 °F 61% 29.94 in 10.0 mi West 8.1 mph - N/A   Overcast
1:35 PM 44.6 °F 40.2 °F 28.4 °F 53% 29.93 in 10.0 mi NW 8.1 mph 17.3 mph N/A   Overcast
1:55 PM 42.8 °F 37.0 °F 28.4 °F 57% 29.93 in 10.0 mi NW 10.4 mph - N/A   Overcast
2:15 PM 44.6 °F 42.2 °F 28.4 °F 53% 29.93 in 10.0 mi WNW 4.6 mph - N/A   Mostly Cloudy
2:35 PM 44.6 °F 40.7 °F 28.4 °F 53% 29.94 in 10.0 mi West 6.9 mph - N/A   Mostly Cloudy
2:55 PM 44.6 °F 43.1 °F 28.4 °F 53% 29.94 in 10.0 mi NW 3.5 mph - N/A   Mostly Cloudy
3:15 PM 42.8 °F 38.6 °F 28.4 °F 57% 29.94 in 10.0 mi West 6.9 mph - N/A   Mostly Cloudy
3:35 PM 42.8 °F 41.1 °F 28.4 °F 57% 29.94 in 10.0 mi WNW 3.5 mph - N/A   Mostly Cloudy
3:55 PM 42.8 °F - 30.2 °F 61% 29.95 in 10.0 mi Calm Calm - N/A   Scattered Clouds
4:15 PM 41.0 °F - 30.2 °F 65% 29.95 in 10.0 mi Calm Calm - N/A   Mostly Cloudy
4:35 PM 39.2 °F - 30.2 °F 70% 29.95 in 10.0 mi Calm Calm - N/A   Mostly Cloudy
4:55 PM 39.2 °F - 30.2 °F 70% 29.95 in 10.0 mi Calm Calm - N/A   Overcast
5:15 PM 39.2 °F - 30.2 °F 70% 29.96 in 10.0 mi Calm Calm - N/A   Overcast
5:35 PM 39.2 °F - 30.2 °F 70% 29.95 in 10.0 mi Calm Calm - N/A   Overcast
5:55 PM 39.2 °F - 30.2 °F 70% 29.96 in 10.0 mi Calm Calm - N/A   Overcast
6:15 PM 39.2 °F - 30.2 °F 70% 29.96 in 10.0 mi Calm Calm - N/A   Overcast
6:35 PM 39.2 °F - 30.2 °F 70% 29.96 in 10.0 mi Calm Calm - N/A   Overcast
6:55 PM 39.2 °F - 32.0 °F 75% 29.95 in 10.0 mi Calm Calm - N/A   Overcast
7:15 PM 37.4 °F - 32.0 °F 81% 29.95 in 10.0 mi Calm Calm - N/A   Overcast
7:35 PM 37.4 °F - 32.0 °F 81% 29.94 in 10.0 mi Calm Calm - N/A   Overcast
7:55 PM 37.4 °F - 32.0 °F 81% 29.93 in 10.0 mi Calm Calm - N/A   Overcast
8:15 PM 37.4 °F - 33.8 °F 87% 29.93 in 10.0 mi Calm Calm - N/A   Overcast
8:35 PM 39.2 °F 37.0 °F 33.8 °F 81% 29.92 in 10.0 mi SSE 3.5 mph - N/A   Overcast
8:55 PM 37.4 °F - 33.8 °F 87% 29.92 in 10.0 mi Calm Calm - N/A   Overcast
9:15 PM 37.4 °F - 33.8 °F 87% 29.91 in 10.0 mi Calm Calm - N/A   Mostly Cloudy
9:35 PM 39.2 °F - 32.0 °F 75% 29.90 in 10.0 mi Calm Calm - N/A   Partly Cloudy
9:55 PM 39.2 °F 37.0 °F 33.8 °F 81% 29.89 in 10.0 mi SSW 3.5 mph - N/A   Mostly Cloudy
10:15 PM 39.2 °F - 33.8 °F 81% 29.88 in 10.0 mi Calm Calm - N/A   Mostly Cloudy
10:35 PM 39.2 °F - 33.8 °F 81% 29.87 in 10.0 mi Calm Calm - N/A   Mostly Cloudy
10:55 PM 37.4 °F - 33.8 °F 87% 29.86 in 10.0 mi Calm Calm - N/A   Mostly Cloudy
11:15 PM 37.4 °F - 35.6 °F 93% 29.85 in 10.0 mi Calm Calm - N/A   Mostly Cloudy
11:35 PM 39.2 °F - 35.6 °F 87% 29.84 in 10.0 mi Calm Calm - N/A   Mostly Cloudy
11:55 PM 37.4 °F - 35.6 °F 93% 29.83 in 10.0 mi Calm Calm - N/A   Overcast